Weather History for KDYB - March, 2013

Change the Weather History Date:

Tuesday, March 19, 2013

  Actual Average (KCHS) Record (KCHS)
Temperature  
Mean Temperature 64 °F 59 °F  
Max Temperature 77 °F 70 °F 85 °F (1963)
Min Temperature 51 °F 47 °F 30 °F (1941)
Degree Days  
Heating Degree Days 1 7  
Month to date heating degree days 170  
Since 1 July heating degree days 1806  
Cooling Degree Days 0 1  
Month to date cooling degree days 17  
Year to date cooling degree days 24  
Growing Degree Days 14 (Base 50)    
Moisture  
Dew Point 50 °F    
Average Humidity 76    
Maximum Humidity 100    
Minimum Humidity 22    
Precipitation  
Precipitation 0.00 in 0.13 in 2.14 in (1998)
Month to date precipitation 2.26  
Year to date precipitation 8.93  
Sea Level Pressure  
Sea Level Pressure 29.90 in    
Wind  
Wind Speed 5 mph (WNW)    
Max Wind Speed 13 mph    
Max Gust Speed 22 mph    
Visibility 8 miles    
Events Fog , Rain , Thunderstorm    
T = Trace of Precipitation, MM = Missing Value Source: NWS Daily Summary

Daily Weather History Graph

Daily Weather History Graph

Search for Another Location

Airport or City:

Trip Planner

Search our weather history database for the weather conditions in past years. The results will help you decide how hot, cold, wet, or windy it might be!

Date:

Astronomy

Mar. 19, 2013 Rise Set
Actual Time 7:25 AM EDT 7:32 PM EDT
Civil Twilight 7:01 AM EDT 7:56 PM EDT
Nautical Twilight 6:32 AM EDT 8:25 PM EDT
Astronomical Twilight 6:03 AM EDT 8:54 PM EDT
Moon 12:31 PM EDT (3/19) 2:00 AM EDT (3/19)
Length of Visible Light 12h 55m
Length of Day
12h 06m
Waxing Crescent, 49% of the Moon is Illuminated
Mar 19
Waxing Crescent
Mar 19
First Quarter
Mar 27
Full
Apr 3
Last Quarter
Apr 10
New

Hourly Weather History & Observations

Time (EDT) Temp. Dew Point Humidity Pressure Visibility Wind Dir Wind Speed Gust Speed Precip Events Conditions
12:15 AM 51.8 °F 51.8 °F 100% 29.94 in 10.0 mi North 3.5 mph - N/A Rain , Thunderstorm Light Thunderstorms and Rain
12:35 AM 51.8 °F 51.8 °F 100% 29.92 in 10.0 mi Calm Calm - N/A Rain Light Rain
12:55 AM 51.8 °F 51.8 °F 100% 29.91 in 10.0 mi ESE 4.6 mph - N/A Rain Light Rain
1:15 AM 51.8 °F 51.8 °F 100% 29.91 in 10.0 mi South 5.8 mph - N/A Rain Rain
1:35 AM 51.8 °F 51.8 °F 100% 29.86 in 10.0 mi SE 10.4 mph - N/A Rain Light Rain
1:55 AM 51.8 °F 51.8 °F 100% 29.83 in 10.0 mi Calm Calm - N/A   Mostly Cloudy
2:15 AM 51.8 °F 51.8 °F 100% 29.86 in 10.0 mi NW 4.6 mph - N/A   Scattered Clouds
2:35 AM 51.8 °F 51.8 °F 100% 29.87 in 10.0 mi Calm Calm - N/A   Mostly Cloudy
2:55 AM 51.8 °F 51.8 °F 100% 29.88 in 10.0 mi SSW 3.5 mph - N/A   Overcast
3:15 AM 51.8 °F 51.8 °F 100% 29.88 in 10.0 mi West 3.5 mph - N/A   Overcast
3:35 AM 51.8 °F 51.8 °F 100% 29.89 in 10.0 mi West 5.8 mph - N/A   Overcast
3:55 AM 51.8 °F 51.8 °F 100% 29.87 in 7.0 mi Calm Calm - N/A   Overcast
4:15 AM 53.6 °F 53.6 °F 100% 29.86 in 10.0 mi Calm Calm - N/A   Overcast
4:35 AM 53.6 °F 53.6 °F 100% 29.86 in 4.0 mi Calm Calm - N/A   Overcast
4:55 AM 53.6 °F 53.6 °F 100% 29.85 in 0.8 mi Calm Calm - N/A   Overcast
5:15 AM 53.6 °F 53.6 °F 100% 29.83 in 0.2 mi Calm Calm - N/A Fog Fog
5:35 AM 53.6 °F 53.6 °F 100% 29.84 in 0.2 mi Calm Calm - N/A Fog Fog
5:55 AM 53.6 °F 53.6 °F 100% 29.85 in 0.2 mi WSW 3.5 mph - N/A Fog Fog
6:15 AM 53.6 °F 53.6 °F 100% 29.88 in 0.8 mi West 4.6 mph - N/A   Overcast
6:35 AM 53.6 °F 53.6 °F 100% 29.89 in 0.5 mi WNW 4.6 mph - N/A Fog Fog
6:55 AM 53.6 °F 53.6 °F 100% 29.89 in 1.2 mi West 4.6 mph - N/A   Overcast
7:15 AM 53.6 °F 53.6 °F 100% 29.90 in 1.2 mi West 5.8 mph - N/A   Overcast
7:35 AM 53.6 °F 53.6 °F 100% 29.91 in 10.0 mi West 6.9 mph - N/A   Overcast
7:55 AM 53.6 °F 53.6 °F 100% 29.90 in 10.0 mi Calm Calm - N/A   Overcast
8:15 AM 53.6 °F 53.6 °F 100% 29.89 in 10.0 mi Calm Calm - N/A   Overcast
8:35 AM 55.4 °F 55.4 °F 100% 29.92 in 10.0 mi WSW 5.8 mph - N/A   Overcast
8:55 AM 55.4 °F 55.4 °F 100% 29.93 in 10.0 mi West 4.6 mph - N/A   Overcast
9:15 AM 55.4 °F 55.4 °F 100% 29.92 in 10.0 mi West 4.6 mph - N/A   Overcast
9:35 AM 57.2 °F 57.2 °F 100% 29.93 in 10.0 mi West 8.1 mph - N/A   Overcast
10:35 AM 60.8 °F 55.4 °F 82% 29.94 in 10.0 mi NW 9.2 mph - N/A   Mostly Cloudy
10:55 AM 62.6 °F 57.2 °F 82% 29.94 in 10.0 mi NW 8.1 mph - N/A   Scattered Clouds
11:15 AM 62.6 °F 53.6 °F 72% 29.95 in 10.0 mi NW 12.7 mph 18.4 mph N/A   Scattered Clouds
11:35 AM 62.6 °F 55.4 °F 77% 29.96 in 10.0 mi WNW 10.4 mph 16.1 mph N/A   Clear
11:55 AM 62.6 °F 53.6 °F 72% 29.96 in 10.0 mi WNW 10.4 mph 21.9 mph N/A   Clear
12:15 PM 64.4 °F 53.6 °F 68% 29.96 in 10.0 mi NNW 10.4 mph 16.1 mph N/A   Clear
12:35 PM 66.2 °F 53.6 °F 64% 29.96 in 10.0 mi NW 11.5 mph - N/A   Clear
12:55 PM 68.0 °F 53.6 °F 60% 29.95 in 10.0 mi NW 5.8 mph 9.2 mph N/A   Clear
1:15 PM 69.8 °F 53.6 °F 56% 29.95 in 10.0 mi NNW 10.4 mph - N/A   Clear
1:35 PM 69.8 °F 53.6 °F 56% 29.94 in 10.0 mi NNW 5.8 mph 17.3 mph N/A   Clear
2:35 PM 71.6 °F 50.0 °F 46% 29.93 in 10.0 mi NW 12.7 mph 20.7 mph N/A   Clear
3:15 PM 73.4 °F 50.0 °F 44% 29.90 in 10.0 mi WNW 8.1 mph 17.3 mph N/A   Clear
3:35 PM 75.2 °F 46.4 °F 36% 29.90 in 10.0 mi West 8.1 mph - N/A   Clear
3:55 PM 75.2 °F 44.6 °F 34% 29.90 in 10.0 mi WNW 10.4 mph 16.1 mph N/A   Clear
4:15 PM 75.2 °F 44.6 °F 34% 29.90 in 10.0 mi West 9.2 mph 16.1 mph N/A   Clear
4:35 PM 77.0 °F 41.0 °F 28% 29.91 in 10.0 mi NW 11.5 mph - N/A   Clear
4:55 PM 77.0 °F 41.0 °F 28% 29.90 in 10.0 mi WSW 6.9 mph 17.3 mph N/A   Clear
5:15 PM 77.0 °F 37.4 °F 24% 29.91 in 10.0 mi NW 6.9 mph - N/A   Clear
5:35 PM 75.2 °F 35.6 °F 24% 29.91 in 10.0 mi WNW 12.7 mph 19.6 mph N/A   Clear
5:55 PM 75.2 °F 37.4 °F 25% 29.91 in 10.0 mi West 11.5 mph - N/A   Clear
6:15 PM 75.2 °F 33.8 °F 22% 29.92 in 10.0 mi WNW 11.5 mph 16.1 mph N/A   Clear
6:35 PM 73.4 °F 33.8 °F 23% 29.92 in 10.0 mi WNW 8.1 mph - N/A   Clear
6:55 PM 73.4 °F 33.8 °F 23% 29.93 in 10.0 mi WNW 5.8 mph - N/A   Clear
7:15 PM 71.6 °F 32.0 °F 23% 29.94 in 10.0 mi West 5.8 mph - N/A   Clear